Regional Weather Roundup
Issued by NWS

Home | Current Version | Previous Version | Text Only | Print | Product List | Glossary On
Versions: 1 2 3 4 5 6 7 8 9 10 11 12 13 14 15 16 17 18 19 20 21 22 23 24 25 26 27 28 29 30 31 32 33 34 35 36 37 38 39 40 41 42 43 44 45 46 47 48 49 50
000
ASUS43 KMPX 161410
RWRMN
WEATHER ROUNDUP FOR MINNESOTA
NATIONAL WEATHER SERVICE TWIN CITIES/CHANHASSEN MN
800 AM CST MON JAN 16 2017


NOTE: "FAIR" INDICATES FEW OR NO CLOUDS BELOW 12,000 FEET WITH NO
SIGNIFICANT WEATHER AND/OR OBSTRUCTIONS TO VISIBILITY. N/A MEANS
CURRENT SKY AND/OR WEATHER CONDITIONS ARE NOT AVAILABLE.

MNZ060>063-068>070-161500-
   Twin Cities Metro

CITY           SKY/WX    TMP DP  RH WIND       PRES   REMARKS
TWIN CITIES    CLOUDY    17  12  80 E5        30.18S WCI  10
ST PAUL        CLOUDY    13  12  96 CALM      30.20S
CRYSTAL        CLOUDY     8   4  83 CALM      30.17S FOG
BLAINE         PTCLDY    14  14 100 CALM      30.17F
LAKEVILLE        N/A      9   9 100 CALM      30.17S FOG
EDEN PRAIRIE   PTCLDY    17  13  84 NE5       30.16F WCI  10
SOUTH ST PAUL  PTCLDY    12   9  89 CALM      30.18F
LAKE ELMO      FAIR       9   5  85 CALM      30.18F
$$
MNZ001>005-007-008-013>017-022>024-027-028-161500-
   Northwest Minnesota

CITY           SKY/WX    TMP DP  RH WIND       PRES   REMARKS
BEMIDJI        CLOUDY     2  -1  86 CALM      30.05S FOG
HALLOCK        CLOUDY     1  -2  85 S10       30.02S WCI -14
ROSEAU         CLOUDY     7   1  78 S7        30.03R WCI  -5
WARROAD        CLOUDY     9   5  85 CALM      30.03S
THIEF RVR FALL CLOUDY     8   5  87 S10       30.05S WCI  -6
CROOKSTON      CLOUDY     7   3  85 S8        30.08S WCI  -6
FOSSTON        CLOUDY    12  10  92 S12       30.06R WCI  -2
DETROIT LAKES  CLOUDY    14  12  92 CALM      30.09R FOG
MOORHEAD       CLOUDY    10   9  92 S8        30.10S WCI  -1
PARK RAPIDS    CLOUDY     6   1  80 CALM      30.07R HAZE
MAHNOMEN       FAIR      14  11  87 S13       30.07R WCI   0
$$
MNZ006-009>011-018-025>026-161500-
   North Central Minnesota

CITY           SKY/WX    TMP DP  RH WIND       PRES   REMARKS
BAUDETTE       CLOUDY     2  -3  80 S3        30.03R
FLAG ISLAND    CLOUDY     3   0  85 SE5       30.03R WCI  -6
INTL FALLS     CLOUDY    -2  -7  79 CALM      30.05R HAZE
WASKISH        CLOUDY     1   0  92 CALM      30.05R
BIG FORK       CLOUDY    10   7  85 S3        30.05S
LONGVILLE      CLOUDY     1   0  92 CALM      30.10R
GRAND RAPIDS   CLOUDY    13  11  92 S7        30.11R FOG     WCI   3
CRANE LAKE     CLOUDY     0  -2  92 CALM      30.10R
ORR            CLOUDY    12   9  85 CALM      30.03S
COOK           CLOUDY     1  -2  85 S3        30.07S
WALKER         FAIR      15  13  91 SW3       30.07R
$$
MNZ012-019>021-037-161500-
   Northeast Minnesota

CITY           SKY/WX    TMP DP  RH WIND       PRES   REMARKS
DULUTH         CLOUDY    16  13  88 W10       30.10R FOG     WCI   4
ELY            CLOUDY     1  -2  85 CALM      30.08R FOG
HIBBING        CLOUDY    -4  -7  87 CALM      30.09R
EVELETH        HAZE      -3  -8  81 CALM      30.10S VSB 3/4
DULUTH HARBOR  CLOUDY    16  12  86 CALM      30.17R FOG
TWO HARBORS    CLOUDY    16  10  79 W6        30.10R FOG     WCI   7
SILVER BAY     CLOUDY     9   7  92 SW5       30.10R FOG     WCI   0
GRAND MARAIS     N/A     23  16  74 NW5       30.11S WCI  17
G MARAIS ARPRT CLEAR     18  10  73 CALM      30.05R
$$
MNZ029>031-032-039>041-046>048-054>057-064-161500-
   West Central Minnesota

CITY           SKY/WX    TMP DP  RH WIND       PRES   REMARKS
FERGUS FALLS   CLOUDY    12  10  92 SE6       30.15R WCI   3
WHEATON        CLOUDY     9   7  92 SE6       30.12S WCI  -1
MORRIS         CLOUDY    10   7  85 E6        30.10S WCI   1
ALEXANDRIA     CLOUDY    11   8  88 NW5       30.10S WCI   3
ELBOW LAKE     FAIR      13  11  91 E10       30.10F FOG     WCI   0
WADENA         CLOUDY     5   1  85 CALM      30.08S FOG
GLENWOOD       CLOUDY    14  12  92 CALM      30.11S
APPLETON       CLOUDY     3   0  85 CALM      30.12S
ORTONVILLE     CLOUDY     9   7  92 CALM      30.10S
MADISON        CLOUDY    10   7  85 S5        30.11F WCI   2
WILLMAR        FAIR      10   9  92 CALM      30.13S FOG
$$
MNZ033>034-036-042>043-049>051-058-059-161500-
   Central Minnesota

CITY           SKY/WX    TMP DP  RH WIND       PRES   REMARKS
ST CLOUD       CLOUDY     3   0  87 CALM      30.14F
SAUK CENTRE    FAIR       2  -1  88 CALM      30.11F FOG
PAYNESVILLE    CLOUDY     6   5  98 CALM      30.13F
AITKIN         CLOUDY    12   9  85 CALM      30.11R FOG
PINE RIVER     CLOUDY     1   0  92 CALM      30.13S FOG
BRAINERD       CLOUDY     5   4  95 CALM      30.11S FOG
STAPLES        CLOUDY     3   1  92 S3        30.10S FOG
LONG PRAIRIE   FAIR       3   1  92 CALM      30.11F FOG
LITTLE FALLS   CLOUDY     1  -2  85 CALM      30.14S
LITCHFIELD     CLOUDY     9   7  92 CALM      30.15R FOG
BUFFALO        CLOUDY     8   6  90 CALM      30.17R
MAPLE LAKE     CLOUDY     8   7  93 CALM      30.16S FOG
HUTCHINSON     CLOUDY    19  17  93 CALM      30.15S
$$
MNZ037-044-045-052-053-161500-
   East Central Minnesota

CITY           SKY/WX    TMP DP  RH WIND       PRES   REMARKS
PRINCETON      CLOUDY     5   1  85 CALM      30.15F FOG
MORA           CLOUDY     0  -6  78 CALM      30.18R
CAMBRIDGE      CLOUDY     7   0  72 CALM      30.15F
RUSH CITY        N/A      3   0  85 CALM      30.17F
MOOSE LAKE     CLOUDY     5   1  85 CALM      30.13S FOG
HINCKLEY       FAIR       1   0  92 CALM      30.16S FOG
CLOQUET        PTCLDY    16  12  86 SW6       30.12R FOG     WCI   7
MCGREGOR       CLOUDY    10   9  92 S3        30.13R
$$
MNZ071>073-080-081-089-090-097-098-161500-
   Southwest Minnesota

CITY           SKY/WX    TMP DP  RH WIND       PRES   REMARKS
MONTEVIDEO     CLOUDY    14  10  85 SW5       30.13F WCI   6
GRANITE FALLS  CLOUDY    17  15  93 SE7       30.14S WCI   7
CANBY            N/A     17  15  89 CALM      30.12S
MARSHALL       PTCLDY    16  13  88 CALM      30.11F
REDWOOD FALLS  CLOUDY    20  16  84 N5        30.12F WCI  13
OLIVIA         CLOUDY    16  12  86 CALM      30.13S
PIPESTONE      CLOUDY    19  18  93 E3        30.06F
WINDOM         CLOUDY    27  23  86 CALM      30.08F
WORTHINGTON    CLOUDY    25  23  93 E5        30.06F WCI  19
JACKSON        CLOUDY    27  25  93 CALM      30.08F FOG
TRACY          CLOUDY    22  18  85 NW3       30.10F
SLAYTON        CLOUDY    19  17  90 N6        30.08F WCI  11
$$
MNZ065>067-074>077-082>085-091>093-161500-
   South Central Minnesota

CITY           SKY/WX    TMP DP  RH WIND       PRES   REMARKS
MANKATO        CLOUDY    22  18  85 E6        30.14F WCI  14
NEW ULM        CLOUDY    21  18  86 CALM      30.13F
ST JAMES       CLOUDY    21  21 100 CALM      30.13S
FAIRMONT       CLOUDY    27  26  96 SE6       30.10F FOG     WCI  20
GLENCOE        CLOUDY    17  17  96 CALM      30.15S
FARIBAULT        N/A     14  10  85 CALM      30.15F
OWATONNA       CLOUDY    19  16  86 CALM      30.13S
WASECA         CLOUDY    21  18  86 NE5       30.14F WCI  15
ALBERT LEA     MIX PCPN  28  28 100 SE5       30.11F WCI  23
$$
MNZ078>079-086>088-094>096-161500-
   Southeast Minnesota

CITY           SKY/WX    TMP DP  RH WIND       PRES   REMARKS
ROCHESTER      CLOUDY    24  22  91 SE7       30.13F WCI  16
RED WING       CLOUDY    10   9  92 CALM      30.18F FOG
STANTON        CLOUDY    14  10  86 CALM      30.16S
DODGE CENTER   CLOUDY    19  16  86 CALM      30.12F
WINONA         CLOUDY    18  16  93 CALM      30.21F
AUSTIN         MIX PCPN  30  27  86 SE5       30.12S WCI  25
PRESTON        MIX PCPN  27  25  93 SE5       30.14F WCI  22
$$
ABBREVIATIONS USED IN REMARKS
   TC - TEMPERATURES IN CELSIUS
  WCI - WIND CHILL INDEX
   HX - HEAT INDEX
  VSB - VISIBILITY
$$



USA.gov is the U.S. government's official web portal to all federal, state and local government web resources and services.